Location: Central Coast NSW, Australia
(33.2407°S, 151.4316°E)
Time: 21:50:03
(UTC+11:00)

Envisat - Visible Passes

Search period start: 22 October 2019 00:00
Search period end: 01 November 2019 00:00
Orbit: 764 x 766 km, 98.1° (Epoch: 22 October)

Date Brightness Start Highest point End Pass type
(mag) Time Alt. Az. Time Alt. Az. Time Alt. Az.
22 Oct 4.1 20:13:42 10° S 20:18:39 49° WSW 20:23:33 10° NNW visible
23 Oct 3.0 19:36:50 10° SSE 19:41:58 69° E 19:47:02 10° N visible
23 Oct 6.3 21:18:31 10° SW 21:20:19 12° WSW 21:22:06 10° W visible
24 Oct 5.2 20:39:41 10° SSW 20:43:58 27° WSW 20:48:13 10° NW visible
25 Oct 3.5 20:02:20 10° S 20:07:25 64° WSW 20:12:27 10° NNW visible
26 Oct 6.8 05:38:02 10° ESE 05:39:07 11° ESE 05:40:12 10° SE visible
26 Oct 6.1 21:06:17 10° SSW 21:09:12 15° WSW 21:12:06 10° W visible
27 Oct 4.8 20:28:10 10° S 20:32:48 35° WSW 20:37:23 10° NW visible
28 Oct 3.1 19:51:02 10° S 19:56:12 83° WSW 20:01:17 10° NNW visible
29 Oct 5.8 20:54:27 10° SSW 20:58:04 20° WSW 21:01:39 10° WNW visible
30 Oct 4.3 20:16:43 10° S 20:21:36 45° WSW 20:26:25 10° NW visible
31 Oct 3.0 19:39:47 10° SSE 19:44:56 77° ENE 19:50:02 10° N visible
31 Oct 6.4 21:22:12 10° SW 21:23:13 11° WSW 21:24:14 10° WSW visible
